Tracking 29777 objects as of 7-Oct-2024
HD Live streaming from Space Station
objects crossing your sky now

STARLINK-5580

Track STARLINK-5580 now!
10-day predictions
STARLINK-5580 is classified as:


NORAD ID: 55748
Int'l Code: 2023-028H
Perigee: 577.3 km
Apogee: 581.2 km
Inclination: 70.0 °
Period: 96.1 minutes
Semi major axis: 6950 km
RCS: Unknown
Launch date: March 3, 2023
Source: United States (US)
Launch site: AIR FORCE WESTERN TEST RANGE (AFWTR)
Your satellite tracking list
Your tracking list is empty




NASA's NSSDC Master Catalog

Two Line Element Set (TLE):
1 55748U 23028H   24280.79439603 -.00000027  00000-0  55708-5 0  9991
2 55748  69.9992 112.8193 0002810 263.9216  96.1623 14.98326677 88310
Source of the keplerian elements: AFSPC